Temperature
8 8 9 9 9 9 9 10 10 10 10 10 10 10 10 10 10 10 11 10 10 10 10 10 11 11 11 11 11 11 10 10 10 10 9 9 8 8 7 7 7 6 6
8 8 8 8 9 9 9 9 9 10 10 10 10 10 10 10 10 10 10 10 10 10 10 10 10 10 10 10 10 10 10 10 9 9 9 8 8 7 7 6 6 6 5
7 7 8 8 8 8 8 9 9 9 9 9 9 9 9 9 9 9 9 10 10 10 10 10 10 10 10 10 10 10 9 9 9 9 8 8 7 7 6 6 5 5 5
7 7 7 7 8 8 8 8 8 8 9 9 9 9 9 9 9 9 9 9 9 9 9 9 9 9 9 9 9 9 9 9 8 8 8 7 7 6 6 5 5 4 4
6 6 7 7 7 7 7 7 7 8 8 8 8 8 8 8 8 9 9 9 9 9 9 9 9 9 8 9 9 9 8 8 8 7 7 7 6 6 5 5 4 4 4
6 6 6 6 6 6 7 7 7 7 7 7 7 7 8 8 8 8 8 8 8 8 8 8 8 8 8 8 8 8 8 8 7 7 7 7 6 6 5 5 4 4 3
5 5 5 6 6 6 6 6 6 6 7 7 7 7 7 7 7 7 8 8 8 8 8 7 7 7 7 7 7 7 7 7 7 6 6 6 6 5 5 4 4 3 3
4 4 5 5 5 5 5 5 5 6 6 6 6 6 6 6 6 7 7 7 7 7 7 7 7 7 7 7 7 7 6 6 6 6 6 5 5 5 4 4 3 3 3
4 4 4 4 4 4 5 5 5 5 5 5 5 5 6 6 6 6 6 6 6 6 6 6 6 6 6 6 6 6 6 5 5 5 5 4 4 4 3 3 3 2 2
3 3 3 3 3 4 4 4 4 4 4 5 5 5 5 5 5 5 5 5 5 5 5 5 5 5 5 5 5 5 5 5 4 4 4 4 3 3 3 2 2 2 2
2 2 2 3 3 3 3 3 3 4 4 4 4 4 4 4 4 4 4 5 5 5 5 5 4 4 4 4 4 4 4 4 4 3 3 3 3 2 2 2 2 1 1
1 2 2 2 2 2 2 3 3 3 3 3 3 3 3 3 3 4 4 4 4 4 4 4 4 4 4 3 3 3 3 3 3 3 2 2 2 2 1 1 1 1 1
1 1 1 2 2 2 2 2 2 2 2 2 2 2 2 3 3 3 3 3 3 3 3 3 3 3 3 3 2 2 2 2 2 2 2 2 1 1 1 0 0 0 -0
1 1 1 1 1 1 1 1 1 2 2 2 2 2 2 2 2 2 2 2 2 2 2 2 2 2 2 2 2 2 2 2 1 1 1 1 0 0 -0 -0 -1 -1 -1
0 0 0 0 1 1 1 1 1 1 1 1 1 1 1 1 1 1 1 2 2 2 2 1 1 1 1 1 1 1 1 1 1 1 0 -0 -0 -1 -1 -1 -1 -1 -1
-0 -1 -1 -0 -0 -0 0 0 0 0 1 1 1 1 1 1 1 1 1 1 1 1 1 1 1 1 1 1 1 0 0 0 0 -0 -0 -1 -1 -1 -1 -2 -2 -2 -2
-1 -1 -1 -1 -1 -1 -1 -0 -0 -0 0 0 0 0 0 0 0 0 0 0 0 0 0 0 0 0 0 0 0 -0 -0 -0 -1 -1 -1 -1 -1 -2 -2 -2 -2 -3 -3
-1 -1 -1 -1 -1 -1 -1 -1 -1 -1 -1 -1 -1 -0 -0 -0 -1 -1 -1 -1 -1 -1 -0 -0 -0 -0 -0 -0 -0 -1 -1 -1 -1 -1 -2 -2 -2 -2 -2 -3 -3 -3 -3
-2 -2 -2 -2 -2 -2 -2 -2 -2 -2 -2 -2 -1 -1 -1 -1 -1 -1 -1 -1 -1 -1 -1 -1 -1 -1 -1 -1 -1 -1 -1 -2 -2 -2 -2 -2 -2 -3 -3 -3 -3 -4 -4
-2 -2 -2 -2 -2 -2 -2 -2 -2 -2 -2 -2 -2 -2 -2 -2 -2 -2 -2 -2 -2 -2 -2 -2 -2 -2 -2 -2 -2 -2 -2 -2 -2 -3 -3 -3 -3 -3 -3 -3 -4 -4 -4
-3 -3 -3 -3 -3 -3 -3 -3 -3 -3 -3 -3 -3 -3 -3 -3 -3 -3 -3 -3 -3 -3 -3 -3 -2 -2 -2 -2 -2 -2 -2 -3 -3 -3 -3 -3 -3 -3 -4 -4 -4 -4 -4
-4 -4 -4 -4 -4 -4 -4 -4 -4 -4 -4 -4 -4 -4 -4 -4 -4 -4 -4 -3 -3 -3 -3 -3 -3 -3 -3 -3 -3 -3 -3 -3 -3 -3 -3 -3 -4 -4 -4 -4 -4 -5 -5
-4 -4 -4 -4 -4 -4 -5 -5 -5 -5 -5 -5 -5 -4 -4 -4 -4 -4 -4 -4 -4 -4 -4 -4 -4 -4 -4 -4 -3 -3 -3 -3 -3 -3 -4 -4 -4 -4 -4 -5 -5 -5 -5
-5 -5 -5 -5 -5 -5 -5 -5 -5 -5 -5 -5 -5 -5 -5 -5 -5 -5 -5 -5 -5 -5 -5 -5 -5 -4 -4 -4 -4 -4 -4 -4 -4 -4 -4 -4 -5 -5 -5 -5 -5 -5 -5
-5 -5 -5 -5 -6 -6 -6 -6 -6 -6 -6 -6 -6 -6 -6 -6 -6 -6 -6 -6 -5 -5 -5 -5 -5 -5 -5 -5 -4 -4 -4 -4 -5 -5 -5 -5 -5 -5 -5 -6 -6 -6 -6
-5 -6 -6 -6 -6 -6 -6 -6 -6 -6 -6 -6 -6 -6 -6 -6 -6 -6 -6 -6 -6 -6 -6 -6 -5 -5 -5 -5 -5 -5 -5 -5 -5 -5 -5 -5 -5 -6 -6 -6 -6 -6 -6
Wind_Speed
3 3 2 1 2 3 4 5 6 6 7 7 7 7 7 8 9 9 8 9 10 9 8 8 8 7 6 5 4 4 4 4 4 2 2 3 4 5 4 4 4 4 3
3 3 2 2 1 1 2 3 4 6 7 7 7 7 7 8 9 10 10 10 11 11 10 9 9 7 8 6 6 6 5 4 4 4 3 3 3 5 4 3 3 3 3
4 3 3 3 2 2 2 2 3 4 5 5 6 7 7 8 9 10 10 10 10 10 10 11 10 9 9 7 7 6 5 4 3 4 4 2 2 3 3 2 2 2 2
5 5 4 4 3 3 3 2 2 3 4 5 6 6 7 7 8 8 8 9 9 8 9 9 9 10 10 9 8 7 6 5 5 5 4 4 3 3 4 3 2 1 1
6 6 5 5 4 4 3 3 2 2 3 4 4 4 5 6 7 7 7 8 8 8 7 7 7 9 10 9 8 8 8 6 6 5 5 4 4 4 5 4 3 2 1
6 6 6 5 5 4 4 3 2 1 1 1 2 4 4 4 6 8 8 7 7 8 7 6 6 8 10 11 11 11 11 9 8 6 5 6 7 5 5 4 4 3 2
6 6 6 5 4 5 5 4 3 2 1 1 2 2 3 4 5 7 8 6 7 7 7 7 6 6 8 7 8 8 8 10 10 8 7 7 7 8 8 6 5 4 3
7 6 6 5 4 4 5 4 4 2 1 1 1 2 2 2 4 5 6 5 5 6 6 7 7 7 7 9 8 6 5 4 5 5 7 6 6 8 8 7 6 4 2
8 7 7 6 5 4 4 4 4 3 2 1 1 1 1 1 3 5 5 4 4 4 4 5 7 7 10 11 9 8 6 4 5 8 8 9 9 10 10 7 6 4 2
8 8 7 6 5 5 5 4 4 3 2 2 1 1 1 1 2 4 4 4 4 4 3 4 7 8 10 12 9 9 8 5 6 7 7 7 7 8 9 6 6 5 3
8 7 7 6 5 5 4 4 4 3 2 2 2 2 1 1 2 4 4 3 4 5 4 4 4 9 10 10 9 7 9 8 7 7 6 5 5 4 4 4 4 4 4
7 7 7 6 5 4 4 4 3 3 2 2 1 1 1 1 1 3 4 4 4 5 4 4 5 9 9 9 7 9 12 11 7 6 5 4 4 3 3 4 4 4 3
7 7 7 6 5 4 3 3 3 3 2 2 2 1 1 1 1 2 3 4 5 3 3 6 7 9 9 7 9 11 9 7 6 6 5 4 3 4 5 4 4 5 5
7 7 6 5 5 4 3 3 3 3 2 2 2 1 1 1 1 1 2 2 4 4 4 6 7 7 6 6 7 6 5 6 6 5 5 4 4 4 4 3 3 3 2
6 6 6 5 5 4 3 3 3 3 3 3 2 2 2 2 3 2 2 2 2 4 5 4 4 4 4 4 4 4 4 5 5 4 5 5 5 4 3 3 3 3 2
5 5 5 4 4 4 4 4 4 4 5 5 4 3 3 3 3 2 2 2 4 6 5 4 4 4 5 5 5 5 4 5 5 5 5 5 5 5 4 3 3 3 3
5 5 4 4 4 4 4 4 4 5 6 5 4 4 3 2 1 1 2 3 4 5 3 4 4 4 5 5 5 5 4 5 5 5 6 5 5 5 4 4 4 3 3
5 5 5 4 4 4 4 4 3 3 4 4 4 5 4 2 1 1 2 2 2 2 1 2 3 4 4 5 5 5 5 5 5 5 5 6 6 5 5 5 5 5 5
4 4 4 4 4 4 4 3 3 3 3 3 3 4 4 3 1 1 2 1 2 2 2 2 2 3 3 4 5 5 6 6 6 6 6 6 6 6 6 6 6 8 6
4 7 6 4 4 4 4 3 3 3 3 3 3 3 3 2 1 1 1 1 2 2 2 2 2 2 3 3 4 5 5 6 6 6 6 6 6 6 7 7 7 6 6
4 5 7 5 4 4 4 4 4 3 3 3 3 4 4 2 2 2 1 1 2 2 2 3 2 3 3 3 4 5 6 6 6 6 6 6 6 6 6 6 7 6 5
3 3 3 4 4 4 4 4 3 3 4 4 4 4 4 2 2 1 1 1 1 1 1 2 2 2 3 3 4 4 5 5 5 6 6 6 6 6 6 6 6 6 6
3 3 3 3 3 5 4 3 3 3 3 3 3 3 3 2 2 2 2 2 1 1 1 1 1 1 1 2 3 3 4 5 5 6 6 6 6 6 6 6 7 6 6
3 3 3 4 3 3 3 4 3 3 3 3 3 3 3 2 2 2 2 2 2 1 1 1 1 2 1 1 2 3 3 4 5 6 7 6 6 6 6 6 6 7 7
2 3 3 3 3 3 3 3 3 3 3 3 3 3 3 2 2 2 2 2 2 2 2 1 1 1 2 2 2 2 3 5 6 6 6 5 6 7 6 6 6 6 6
2 3 3 3 3 3 3 3 3 3 3 3 3 3 3 3 3 2 2 2 2 2 2 2 2 2 2 2 3 4 4 5 7 7 6 5 5 5 6 6 7 6 6
Wind_Direction
2 357 9 341 267 230 217 224 216 210 204 202 206 208 212 207 202 202 203 197 198 200 199 198 202 191 190 189 185 185 189 177 183 164 131 139 149 153 145 145 148 149 149
7 8 1 343 327 295 246 237 219 208 207 207 206 209 214 210 203 202 204 201 201 202 202 198 199 193 189 188 189 188 189 179 170 175 162 154 152 164 153 148 146 147 154
14 12 2 356 341 320 298 271 243 220 211 208 208 213 219 213 206 207 206 204 204 204 202 200 199 193 197 194 189 186 184 175 161 164 162 149 136 146 138 138 138 138 164
10 9 360 349 336 320 312 297 268 235 216 212 213 218 220 213 208 206 204 204 203 204 205 203 200 198 197 191 189 183 175 171 161 157 159 156 146 146 150 162 166 167 177
4 2 353 344 338 336 328 311 308 269 230 215 210 218 219 209 206 202 200 201 199 200 202 202 201 199 196 194 190 183 176 175 170 170 170 160 163 170 182 170 170 151 187
1 353 343 344 343 342 337 333 339 326 313 237 213 213 216 217 208 199 194 194 194 194 196 196 191 189 189 191 189 185 182 180 183 181 179 181 183 181 163 161 151 153 211
360 352 349 350 357 350 343 347 345 334 329 307 256 228 218 217 204 196 191 187 189 190 186 184 185 184 178 172 168 169 182 192 188 178 179 185 177 174 161 161 169 172 191
0 355 352 355 352 349 348 342 333 332 336 295 280 257 236 217 198 189 181 180 183 184 183 180 175 171 171 160 149 142 136 138 161 165 170 173 169 162 163 164 159 135 97
358 352 347 346 343 342 342 332 326 327 329 323 306 277 242 225 187 174 162 166 168 171 171 172 169 169 171 162 152 146 132 115 108 123 130 137 143 150 149 132 137 142 165
346 341 340 341 340 337 333 326 320 317 316 324 330 291 227 222 188 173 162 161 162 160 155 162 171 172 171 166 158 153 153 151 133 121 111 110 112 130 146 151 156 155 155
334 338 340 341 338 335 335 332 330 331 337 341 339 327 282 231 195 184 179 169 171 166 166 166 171 172 173 170 163 162 166 152 139 133 125 115 105 104 103 114 136 150 157
337 340 338 341 342 344 344 340 342 344 340 334 340 331 322 284 237 207 194 188 173 165 169 167 165 164 165 164 162 161 157 146 135 135 136 141 142 140 124 113 114 110 114
345 340 335 340 342 341 342 335 336 342 338 327 322 301 319 336 297 226 198 180 167 155 159 162 162 162 161 160 159 160 155 144 144 149 158 161 154 144 128 114 102 99 87
341 337 336 341 342 342 337 333 334 330 318 309 297 279 296 306 275 220 196 169 151 145 147 153 156 154 146 146 151 154 146 153 156 159 153 142 133 135 140 141 139 133 116
336 337 337 338 337 335 331 327 321 304 304 293 282 273 259 255 251 243 195 178 165 157 143 133 139 147 155 149 143 141 144 151 155 147 148 148 152 153 153 146 146 142 153
333 334 333 332 333 332 330 333 342 332 330 322 312 304 297 291 276 240 217 168 150 150 144 158 168 173 175 173 171 168 165 167 166 162 162 163 165 166 160 155 154 163 176
328 326 326 329 327 325 329 330 329 337 345 339 331 322 311 300 275 221 186 166 163 158 157 170 178 182 183 181 178 177 181 176 168 169 172 171 168 166 163 169 175 179 189
323 322 323 316 316 318 320 317 312 315 328 335 338 335 325 298 257 205 178 152 161 169 172 184 189 190 188 186 184 181 176 170 170 175 176 176 173 170 174 181 186 188 190
320 319 317 317 320 317 314 314 314 313 314 319 332 339 340 331 301 229 180 156 177 198 203 207 202 194 193 189 186 183 181 180 176 176 181 181 180 179 185 188 190 198 196
312 321 328 322 319 318 318 319 320 320 321 321 320 322 331 339 328 259 210 191 202 215 215 217 216 207 198 194 190 186 184 183 182 184 185 186 186 187 190 190 191 194 200
304 313 323 321 313 314 315 316 318 318 316 316 314 315 325 318 295 280 253 235 230 227 223 219 218 213 206 200 196 192 191 191 189 187 185 186 186 188 189 190 193 195 195
294 301 307 309 312 316 317 316 316 316 317 316 319 325 329 334 323 315 299 281 270 259 241 222 220 221 211 204 198 193 193 192 188 184 184 185 187 187 185 188 191 195 196
286 297 305 304 305 313 318 315 314 313 313 314 320 327 335 339 334 331 322 314 301 288 276 237 223 226 216 197 193 193 195 198 191 182 181 183 186 186 185 191 192 192 197
275 284 294 300 303 305 308 311 314 317 318 319 323 328 332 333 330 330 326 325 325 315 303 272 246 227 217 213 209 206 200 192 182 180 179 182 186 187 188 192 194 197 198
269 276 284 291 298 301 306 310 314 316 317 317 319 323 326 325 321 320 320 318 316 314 313 310 304 265 237 229 230 231 223 201 189 183 180 183 186 190 193 194 194 193 196
274 280 284 287 289 293 298 302 306 308 308 310 312 313 314 316 317 316 314 310 305 300 300 301 302 288 271 256 252 245 233 218 207 197 186 183 187 194 193 196 195 195 193
Height
1439 1438 1439 1441 1442 1444 1445 1447 1449 1451 1454 1456 1459 1461 1464 1466 1469 1472 1475 1478 1480 1483 1486 1488 1490 1493 1495 1497 1499 1500 1502 1504 1504 1505 1507 1508 1509 1510 1511 1511 1511 1512 1512
1437 1437 1438 1439 1440 1440 1441 1443 1445 1447 1449 1451 1453 1455 1458 1460 1462 1465 1468 1471 1474 1476 1479 1481 1483 1486 1488 1490 1492 1494 1496 1497 1499 1499 1501 1502 1504 1505 1506 1507 1507 1508 1508
1435 1435 1436 1437 1438 1438 1438 1439 1441 1442 1444 1446 1448 1450 1452 1454 1456 1459 1462 1464 1467 1469 1472 1474 1477 1479 1481 1483 1485 1487 1489 1491 1493 1494 1495 1496 1498 1500 1501 1502 1503 1503 1504
1434 1434 1434 1434 1435 1435 1436 1436 1437 1438 1439 1441 1442 1445 1446 1448 1451 1453 1456 1458 1460 1463 1465 1468 1470 1472 1474 1476 1478 1480 1482 1485 1487 1488 1490 1490 1492 1494 1496 1497 1498 1499 1500
1434 1433 1433 1432 1433 1433 1433 1433 1433 1433 1434 1435 1437 1439 1441 1443 1445 1447 1450 1452 1454 1456 1458 1460 1462 1465 1467 1470 1472 1474 1476 1478 1480 1482 1484 1485 1487 1489 1490 1492 1493 1495 1496
1434 1432 1432 1431 1431 1431 1431 1430 1430 1430 1430 1431 1432 1434 1436 1437 1439 1442 1444 1446 1448 1450 1451 1453 1456 1458 1460 1463 1465 1467 1470 1472 1474 1476 1478 1479 1481 1483 1485 1487 1488 1490 1491
1434 1432 1431 1430 1429 1429 1428 1428 1427 1427 1427 1428 1429 1430 1431 1433 1434 1436 1438 1440 1442 1444 1445 1447 1449 1452 1454 1457 1459 1461 1464 1466 1469 1470 1472 1474 1476 1477 1480 1482 1483 1485 1487
1434 1432 1431 1429 1428 1428 1427 1426 1426 1425 1425 1426 1426 1426 1427 1429 1430 1431 1433 1435 1437 1438 1440 1442 1444 1446 1449 1451 1453 1456 1458 1460 1462 1464 1467 1469 1472 1473 1475 1478 1479 1481 1483
1434 1432 1430 1429 1428 1427 1426 1425 1424 1424 1423 1423 1423 1423 1424 1425 1426 1428 1429 1430 1432 1433 1435 1437 1439 1441 1443 1446 1448 1451 1453 1455 1457 1460 1462 1464 1466 1469 1471 1473 1475 1477 1478
1434 1432 1430 1428 1427 1425 1424 1423 1423 1422 1421 1421 1421 1421 1421 1422 1423 1424 1425 1426 1427 1428 1430 1432 1434 1437 1439 1441 1444 1446 1448 1450 1453 1456 1458 1460 1462 1465 1467 1469 1471 1473 1474
1433 1431 1429 1427 1426 1424 1423 1422 1421 1420 1419 1419 1418 1418 1419 1419 1420 1421 1422 1422 1423 1424 1426 1428 1430 1432 1434 1437 1439 1442 1444 1447 1450 1452 1454 1456 1459 1461 1463 1465 1467 1469 1471
1433 1430 1428 1426 1425 1423 1422 1421 1419 1418 1417 1416 1416 1416 1416 1416 1417 1417 1418 1420 1420 1421 1423 1425 1426 1428 1431 1433 1436 1438 1441 1443 1446 1448 1451 1452 1455 1457 1459 1461 1463 1465 1467
1431 1429 1427 1425 1423 1422 1421 1419 1418 1416 1415 1414 1414 1413 1413 1413 1414 1415 1416 1416 1417 1418 1420 1422 1424 1425 1428 1430 1433 1435 1437 1439 1442 1444 1446 1449 1452 1454 1455 1457 1459 1461 1463
1430 1428 1426 1424 1422 1421 1420 1418 1417 1415 1414 1412 1412 1411 1411 1411 1412 1412 1412 1413 1414 1415 1417 1419 1421 1423 1425 1427 1429 1431 1434 1436 1438 1440 1443 1445 1447 1449 1451 1453 1455 1457 1459
1429 1427 1424 1423 1421 1420 1418 1417 1415 1414 1412 1411 1410 1409 1409 1409 1409 1410 1410 1410 1410 1412 1413 1415 1417 1419 1421 1423 1425 1428 1430 1432 1434 1437 1439 1442 1444 1446 1448 1450 1452 1453 1455
1427 1425 1423 1421 1420 1418 1416 1414 1413 1412 1411 1410 1408 1408 1407 1407 1407 1407 1408 1408 1408 1409 1411 1412 1414 1416 1418 1420 1422 1424 1426 1429 1431 1434 1436 1438 1440 1442 1444 1446 1448 1450 1451
1426 1424 1422 1420 1418 1416 1414 1412 1411 1410 1409 1408 1406 1406 1405 1405 1405 1405 1405 1405 1406 1407 1408 1409 1411 1413 1415 1418 1420 1421 1424 1426 1428 1431 1433 1435 1437 1439 1441 1442 1444 1446 1448
1424 1423 1421 1419 1417 1415 1413 1411 1409 1407 1406 1405 1405 1404 1403 1403 1402 1402 1403 1403 1403 1405 1406 1407 1408 1410 1412 1414 1416 1419 1421 1423 1425 1427 1429 1431 1433 1435 1437 1439 1441 1443 1444
1422 1420 1418 1417 1415 1413 1411 1410 1408 1406 1405 1403 1402 1402 1401 1401 1400 1401 1401 1401 1401 1402 1404 1405 1406 1408 1409 1411 1413 1415 1417 1419 1421 1423 1425 1427 1429 1431 1433 1435 1437 1439 1440
1420 1418 1416 1414 1413 1411 1409 1408 1406 1405 1403 1402 1401 1400 1399 1398 1398 1398 1398 1399 1399 1400 1401 1402 1403 1404 1406 1407 1409 1411 1413 1415 1417 1419 1421 1423 1425 1427 1429 1431 1433 1434 1436
1417 1415 1414 1412 1410 1408 1407 1405 1404 1403 1401 1400 1399 1398 1397 1396 1396 1396 1396 1396 1397 1397 1398 1399 1400 1401 1402 1403 1405 1407 1409 1410 1413 1415 1417 1419 1421 1423 1425 1426 1428 1430 1432
1414 1412 1411 1409 1407 1406 1404 1403 1402 1401 1399 1398 1397 1396 1395 1394 1394 1393 1393 1393 1394 1394 1395 1395 1396 1397 1398 1400 1401 1402 1404 1406 1408 1410 1412 1414 1416 1418 1420 1422 1423 1425 1427
1411 1409 1408 1406 1405 1403 1402 1401 1399 1398 1397 1396 1395 1394 1393 1392 1391 1391 1390 1390 1390 1390 1391 1391 1392 1393 1394 1396 1397 1398 1400 1402 1403 1405 1407 1409 1411 1413 1415 1417 1419 1420 1422
1408 1406 1405 1403 1402 1401 1399 1398 1397 1395 1394 1393 1392 1391 1390 1389 1389 1388 1388 1387 1387 1387 1387 1388 1388 1389 1390 1391 1392 1394 1395 1397 1399 1400 1402 1404 1406 1408 1410 1412 1413 1415 1417
1405 1403 1402 1400 1399 1398 1396 1395 1394 1393 1392 1391 1389 1388 1388 1387 1386 1386 1385 1385 1384 1384 1384 1384 1384 1385 1386 1387 1388 1389 1391 1392 1394 1396 1397 1399 1401 1403 1405 1407 1408 1410 1412
1401 1400 1399 1397 1396 1395 1393 1392 1391 1390 1389 1388 1387 1386 1385 1384 1383 1383 1382 1382 1381 1381 1381 1381 1381 1382 1382 1383 1384 1385 1386 1388 1389 1391 1392 1394 1396 1398 1400 1401 1403 1405 1407